Date String (YYYY-MM-DD hh:mm:ss) UTC,Instrument flags,Ambient pressure (hPa),Sample flow (lpm),Bypass flow (lpm),Sample temperature (°C),Ambient temperature (°C),ASC tube jacket temperature (°C),LED temperature (°C),Box temperature (°C),Sample RH (%),Span deviation,Mass concentration (μg/m³),Mass concentration (μg/m³),Mass concentration (μg/m³)
DateTimeUTC,F1_M11,P_M11,Q1_M11,Q2_M11,T1_M11,T2_M11,T3_M11,T4_M11,T5_M11,U1_M11,ZSPAN_M11,X0_M11,X2_M11,X1_M11
2022-11-28 21:00:00,,0808.3,5.00,0.00,22.4,20.9,00.0,31.4,24.1,10.4,0000.0,0001.27,0000.70,0000.45
2022-11-28 21:01:00,,0808.2,5.00,0.00,22.4,20.9,00.0,31.4,24.1,10.2,0000.0,0001.31,0000.72,0000.45
2022-11-28 21:02:00,,0808.2,5.00,0.00,22.4,20.9,00.0,31.4,24.1,10.0,0000.0,0001.33,0000.72,0000.46
2022-11-28 21:03:00,,0808.2,5.00,0.00,22.4,20.9,00.0,31.4,24.1,09.9,0000.0,0001.33,0000.72,0000.46
2022-11-28 21:04:00,,0808.2,5.00,0.00,22.4,20.9,00.0,31.4,24.1,09.9,0000.0,0001.18,0000.67,0000.45
2022-11-28 21:05:00,,0808.2,5.00,0.00,22.4,20.9,00.0,31.4,24.0,10.0,0000.0,0001.17,0000.65,0000.46
2022-11-28 21:06:00,,0808.3,5.00,0.00,22.4,20.9,00.0,31.4,24.0,09.8,0000.0,0001.12,0000.64,0000.45
2022-11-28 21:07:00,,0808.2,5.00,0.00,22.4,20.9,00.0,31.4,24.1,09.8,0000.0,0001.13,0000.64,0000.45
2022-11-28 21:08:00,,0808.2,5.00,0.00,22.4,20.9,00.0,31.4,24.1,09.9,0000.0,0001.11,0000.66,0000.44
2022-11-28 21:09:00,,0808.2,5.00,0.00,22.4,20.9,00.0,31.4,24.2,09.8,0000.0,0001.17,0000.68,0000.44
2022-11-28 21:10:00,,0808.1,5.00,0.00,22.4,20.9,00.0,31.4,24.2,09.9,0000.0,0001.20,0000.69,0000.44
2022-11-28 21:11:00,,0808.2,5.01,0.00,22.4,20.9,00.0,31.3,24.1,09.8,0000.0,0001.42,0000.69,0000.44
2022-11-28 21:12:00,,0808.1,5.01,0.00,22.4,20.9,00.0,31.3,24.1,09.7,0000.0,0002.43,0000.69,0000.43
2022-11-28 21:13:00,,0808.1,4.99,0.00,22.3,20.9,00.0,31.3,24.1,09.7,0000.0,0002.45,0000.70,0000.43
2022-11-28 21:14:00,,0808.1,5.00,0.00,22.3,20.9,00.0,31.3,24.0,09.7,0000.0,0002.63,0000.71,0000.43
2022-11-28 21:15:00,,0808.1,5.01,0.00,22.3,20.8,00.0,31.3,24.0,09.8,0000.0,0003.13,0000.71,0000.43
2022-11-28 21:16:00,,0808.2,5.00,0.00,22.3,20.8,00.0,31.3,23.9,09.9,0000.0,0003.61,0000.71,0000.43
2022-11-28 21:17:00,,0808.1,4.99,0.00,22.3,20.8,00.0,31.3,24.0,09.9,0000.0,0003.63,0000.74,0000.43
2022-11-28 21:18:00,,0808.1,5.00,0.00,22.3,20.8,00.0,31.3,24.0,09.9,0000.0,0003.60,0000.72,0000.43
2022-11-28 21:19:00,,0808.0,5.00,0.00,22.3,20.8,00.0,31.3,24.0,09.8,0000.0,0003.48,0000.67,0000.43
2022-11-28 21:20:00,,0808.0,5.00,0.00,22.3,20.8,00.0,31.3,24.0,09.7,0000.0,0003.51,0000.66,0000.43
2022-11-28 21:21:00,,0808.1,5.00,0.00,22.3,20.8,00.0,31.3,24.0,09.7,0000.0,0003.68,0000.69,0000.43
2022-11-28 21:22:00,,0808.1,5.00,0.00,22.3,20.8,00.0,31.3,24.0,09.8,0000.0,0003.40,0000.69,0000.43
2022-11-28 21:23:00,,0808.0,5.00,0.00,22.3,20.8,00.0,31.3,24.0,09.9,0000.0,0002.49,0000.66,0000.44
2022-11-28 21:24:00,,0808.0,4.99,0.00,22.3,20.8,00.0,31.3,24.0,09.9,0000.0,0002.53,0000.68,0000.44
2022-11-28 21:25:00,,0808.1,5.00,0.00,22.3,20.8,00.0,31.3,24.0,09.8,0000.0,0002.34,0000.66,0000.44
2022-11-28 21:26:00,,0808.0,5.00,0.00,22.3,20.8,00.0,31.3,24.0,09.9,0000.0,0001.83,0000.69,0000.44
2022-11-28 21:27:00,,0808.0,5.01,0.00,22.3,20.8,00.0,31.3,24.0,09.8,0000.0,0001.44,0000.70,0000.44
2022-11-28 21:28:00,,0808.0,5.00,0.00,22.3,20.9,00.0,31.2,24.0,09.8,0000.0,0001.44,0000.70,0000.44
2022-11-28 21:29:00,,0807.9,5.00,0.00,22.3,20.9,00.0,31.2,24.0,09.9,0000.0,0001.42,0000.68,0000.44
2022-11-28 21:30:00,,0808.0,5.00,0.00,22.3,20.9,00.0,31.2,24.1,09.5,0000.0,0001.43,0000.69,0000.44
2022-11-28 21:31:00,,0808.0,5.00,0.00,22.3,20.9,00.0,31.2,24.0,09.5,0000.0,0001.37,0000.67,0000.43
2022-11-28 21:32:00,,0808.0,5.00,0.00,22.3,20.9,00.0,31.2,24.0,09.7,0000.0,0001.15,0000.63,0000.44
2022-11-28 21:33:00,,0807.9,5.00,0.00,22.3,20.9,00.0,31.2,24.0,09.8,0000.0,0001.09,0000.62,0000.43
2022-11-28 21:34:00,,0808.0,5.00,0.00,22.3,20.9,00.0,31.2,24.0,09.9,0000.0,0001.03,0000.62,0000.43
2022-11-28 21:35:00,,0808.0,5.00,0.00,22.3,20.9,00.0,31.2,24.0,09.7,0000.0,0001.06,0000.63,0000.43
2022-11-28 21:36:00,,0808.0,5.00,0.00,22.3,20.9,00.0,31.2,24.0,09.5,0000.0,0001.14,0000.65,0000.42
2022-11-28 21:37:00,,0808.0,5.00,0.00,22.3,20.8,00.0,31.2,24.0,09.8,0000.0,0001.08,0000.63,0000.42
2022-11-28 21:38:00,,0807.9,5.01,0.00,22.3,20.8,00.0,31.2,23.9,09.5,0000.0,0001.09,0000.62,0000.42
2022-11-28 21:39:00,,0807.9,5.00,0.00,22.2,20.8,00.0,31.2,23.9,09.4,0000.0,0001.06,0000.60,0000.41
2022-11-28 21:40:00,,0807.9,5.00,0.00,22.2,20.8,00.0,31.2,24.0,09.5,0000.0,0001.74,0000.62,0000.41
2022-11-28 21:41:00,,0808.0,5.00,0.00,22.2,20.8,00.0,31.2,23.9,09.4,0000.0,0002.19,0000.64,0000.41
2022-11-28 21:42:00,,0808.0,5.00,0.00,22.2,20.8,00.0,31.2,24.0,09.4,0000.0,0002.17,0000.63,0000.42
2022-11-28 21:43:00,,0808.0,5.00,0.00,22.2,20.8,00.0,31.2,24.0,09.5,0000.0,0002.16,0000.63,0000.42
2022-11-28 21:44:00,,0808.0,5.00,0.00,22.2,20.8,00.0,31.2,24.0,09.2,0000.0,0002.22,0000.64,0000.41
2022-11-28 21:45:00,,0808.0,5.00,0.00,22.2,20.8,00.0,31.2,24.0,09.2,0000.0,0002.22,0000.64,0000.41
2022-11-28 21:46:00,,0808.0,5.00,0.00,22.2,20.9,00.0,31.2,24.0,09.3,0000.0,0002.18,0000.63,0000.42
2022-11-28 21:47:00,,0808.0,5.00,0.00,22.2,20.9,00.0,31.2,24.0,09.5,0000.0,0003.40,0000.59,0000.42
2022-11-28 21:48:00,,0807.9,5.01,0.00,22.2,20.9,00.0,31.2,24.0,09.0,0000.0,0003.64,0000.58,0000.42
2022-11-28 21:49:00,,0808.0,5.01,0.00,22.2,20.9,00.0,31.2,24.0,08.6,0000.0,0003.66,0000.59,0000.42
2022-11-28 21:50:00,,0808.0,4.99,0.00,22.2,20.9,00.0,31.2,24.0,08.9,0000.0,0003.68,0000.60,0000.42
2022-11-28 21:51:00,,0808.0,4.99,0.00,22.2,20.9,00.0,31.2,24.0,09.4,0000.0,0003.12,0000.59,0000.42
2022-11-28 21:52:00,,0807.9,5.00,0.00,22.2,20.9,00.0,31.2,24.0,09.5,0000.0,0002.64,0000.60,0000.43
2022-11-28 21:53:00,,0808.0,5.00,0.00,22.2,20.9,00.0,31.2,24.0,09.0,0000.0,0002.66,0000.62,0000.44
2022-11-28 21:54:00,,0808.0,5.00,0.00,22.2,20.9,00.0,31.2,24.0,08.9,0000.0,0002.65,0000.61,0000.44
2022-11-28 21:55:00,,0807.9,5.01,0.00,22.2,20.9,00.0,31.2,24.0,09.0,0000.0,0003.65,0000.61,0000.44
2022-11-28 21:56:00,,0808.0,5.00,0.00,22.2,20.9,00.0,31.2,24.0,08.7,0000.0,0004.25,0000.61,0000.44
2022-11-28 21:57:00,,0808.0,5.01,0.00,22.2,20.9,00.0,31.2,24.0,08.9,0000.0,0004.29,0000.61,0000.44
2022-11-28 21:58:00,,0807.9,5.00,0.00,22.2,20.9,00.0,31.2,24.0,08.8,0000.0,0003.19,0000.61,0000.43
2022-11-28 21:59:00,,0807.9,5.00,0.00,22.2,20.9,00.0,31.2,24.0,08.9,0000.0,0002.85,0000.62,0000.44
